Estación de Rauco
Ultimos registro cada 15 minutos 29
| N° | Estación | Fecha / Hora | Temperatura | Humedad | Lluvia | Velocidad | Dirección | Radiación | Presion |
| 29 | Rauco | 10-05-2026 07:00 | -0,1 | 90 | 0 | 0 | 257 | 0 | 1017,1 |
| 28 | Rauco | 10-05-2026 06:45 | 0,2 | 90 | 0 | 0 | 257 | 0 | 1017 |
| 27 | Rauco | 10-05-2026 06:30 | 0,3 | 90 | 0 | 0 | 257 | 0 | 1017 |
| 26 | Rauco | 10-05-2026 06:15 | 0,4 | 90 | 0 | 0 | 257 | 0 | 1017 |
| 25 | Rauco | 10-05-2026 06:00 | 0,7 | 90 | 0 | 0 | 175 | 0 | 1016,9 |
| 24 | Rauco | 10-05-2026 05:45 | 0,9 | 90 | 0 | 0 | 175 | 0 | 1016,9 |
| 23 | Rauco | 10-05-2026 05:30 | 1,2 | 90 | 0 | 0 | 175 | 0 | 1016,7 |
| 22 | Rauco | 10-05-2026 05:15 | 1,4 | 90 | 0 | 0 | 175 | 0 | 1016,5 |
| 21 | Rauco | 10-05-2026 05:00 | 1,6 | 91 | 0 | 0 | 175 | 0 | 1016,6 |
| 20 | Rauco | 10-05-2026 04:45 | 1,7 | 91 | 0 | 0 | 175 | 0 | 1016,6 |
| 19 | Rauco | 10-05-2026 04:30 | 1,8 | 90 | 0 | 0 | 175 | 0 | 1016,6 |
| 18 | Rauco | 10-05-2026 04:15 | 2 | 91 | 0 | 0 | 175 | 0 | 1016,6 |
| 17 | Rauco | 10-05-2026 04:00 | 2,1 | 90 | 0 | 0 | 175 | 0 | 1016,5 |
| 16 | Rauco | 10-05-2026 03:45 | 2,3 | 90 | 0 | 0 | 175 | 0 | 1016,7 |
| 15 | Rauco | 10-05-2026 03:30 | 2,5 | 90 | 0 | 0 | 175 | 0 | 1016,7 |
| 14 | Rauco | 10-05-2026 03:15 | 2,6 | 90 | 0 | 0 | 175 | 0 | 1016,8 |
| 13 | Rauco | 10-05-2026 03:00 | 2,6 | 89 | 0 | 0 | 175 | 0 | 1017 |
| 12 | Rauco | 10-05-2026 02:45 | 2,8 | 90 | 0 | 0 | 175 | 0 | 1017,2 |
| 11 | Rauco | 10-05-2026 02:30 | 2,8 | 90 | 0 | 0 | 175 | 0 | 1017,2 |
| 10 | Rauco | 10-05-2026 02:15 | 2,7 | 89 | 0 | 0 | 175 | 0 | 1017,4 |
| 9 | Rauco | 10-05-2026 02:00 | 3,1 | 89 | 0 | 0 | 175 | 0 | 1017,2 |
| 8 | Rauco | 10-05-2026 01:45 | 3,3 | 88 | 0 | 0 | 175 | 0 | 1017,3 |
| 7 | Rauco | 10-05-2026 01:30 | 3,5 | 88 | 0 | 0 | 175 | 0 | 1017,2 |
| 6 | Rauco | 10-05-2026 01:15 | 3,7 | 87 | 0 | 0 | 175 | 0 | 1017,3 |
| 5 | Rauco | 10-05-2026 01:00 | 3,9 | 87 | 0 | 0 | 175 | 0 | 1017,3 |
| 4 | Rauco | 10-05-2026 00:45 | 4,2 | 85 | 0 | 0 | 175 | 0 | 1017,4 |
| 3 | Rauco | 10-05-2026 00:30 | 4,7 | 84 | 0 | 0 | 256 | 0 | 1017,5 |
| 2 | Rauco | 10-05-2026 00:15 | 5,2 | 83 | 0 | 0 | 256 | 0 | 1017,3 |
| 1 | Rauco | 10-05-2026 00:00 | 6,2 | 81 | 0 | 0 | 256 | 0 | 1017,2 |